User: anonymous   Login
Location: Unspecified
(0.0000°N, 0.0000°E)
Time: 06:54:13
(UTC+02:00)
Language:

GP-B - Orbit

View from above orbital plane
View from above orbital plane
View from above satellite
View from above satellite

Ground track
Ground track

The orbit data is extracted from the following two-line orbital elements,

1 28230U 04014A   17235.23167734 +.00000140 +00000-0 +16870-4 0  9996
2 28230 089.8454 120.7677 0002013 082.3098 277.8353 14.78554665176203
Epoch (UTC): 23 August 2017 05:33:36
Eccentricity: 0.0002013
inclination: 89.8454°
perigee height: 632 km
apogee height: 635 km
right ascension of ascending node: 120.7677°
argument of perigee: 82.3098°
revolutions per day: 14.78554665
mean anomaly at epoch: 277.8353°
orbit number at epoch: 17620

The dashed part of the orbit path shows where the satellite is in the earth's shadow,  

DLR